TimeEDT,TemperatureF,Dew PointF,Humidity,Sea Level PressureIn,VisibilityMPH,Wind Direction,Wind SpeedMPH,Gust SpeedMPH,PrecipitationIn,Events,Conditions,WindDirDegrees,DateUTC
12:15 AM,71.6,69.8,94,29.87,1.0,SE,6.9,-,N/A,,Overcast,130,2013-07-23 04:15:00
12:35 AM,71.6,69.8,94,29.86,4.0,SE,6.9,-,N/A,,Overcast,140,2013-07-23 04:35:00
12:55 AM,71.6,69.8,94,29.85,7.0,SE,6.9,-,0.03,,Overcast,140,2013-07-23 04:55:00
1:15 AM,71.6,69.8,94,29.84,5.0,SE,8.1,-,N/A,,Overcast,130,2013-07-23 05:15:00
1:35 AM,71.6,69.8,94,29.84,0.8,SSE,9.2,-,N/A,,Overcast,150,2013-07-23 05:35:00
1:55 AM,71.6,69.8,94,29.83,1.8,SSE,6.9,-,N/A,,Overcast,150,2013-07-23 05:55:00
2:15 AM,71.6,69.8,94,29.81,0.8,SSE,5.8,-,N/A,,Overcast,150,2013-07-23 06:15:00
2:35 AM,71.6,69.8,94,29.80,5.0,SE,8.1,-,N/A,,Overcast,140,2013-07-23 06:35:00
2:55 AM,71.6,69.8,94,29.79,5.0,SE,5.8,-,N/A,,Overcast,140,2013-07-23 06:55:00
3:15 AM,71.6,69.8,94,29.79,8.0,SE,5.8,-,N/A,Thunderstorm,Overcast,130,2013-07-23 07:15:00
3:35 AM,71.6,69.8,94,29.78,8.0,SSE,5.8,-,N/A,Thunderstorm,Overcast,150,2013-07-23 07:35:00
3:55 AM,71.6,69.8,94,29.77,4.0,SE,4.6,-,0.13,Thunderstorm,Thunderstorm,130,2013-07-23 07:55:00
4:15 AM,71.6,69.8,94,29.75,2.0,East,6.9,-,0.49,Thunderstorm,Thunderstorm,100,2013-07-23 08:15:00
4:35 AM,71.6,69.8,94,29.76,8.0,SW,4.6,-,0.62,,Overcast,230,2013-07-23 08:35:00
4:55 AM,71.6,69.8,94,29.76,8.0,Calm,Calm,-,0.66,,Overcast,0,2013-07-23 08:55:00
5:15 AM,71.6,69.8,94,29.75,5.0,Calm,Calm,-,0.06,,Overcast,0,2013-07-23 09:15:00
5:35 AM,71.6,69.8,94,29.74,5.0,SE,4.6,-,0.12,,Overcast,130,2013-07-23 09:35:00
5:45 AM,71.6,69.8,94,29.74,1.0,SSE,4.6,-,N/A,Rain,Light Rain,150,2013-07-23 09:45:00
5:55 AM,71.6,69.8,94,29.74,9.0,SSE,6.9,-,0.16,,Overcast,150,2013-07-23 09:55:00
6:45 AM,73.4,69.8,88,29.73,1.0,South,6.9,-,N/A,,Overcast,180,2013-07-23 10:45:00
7:18 AM,73.4,69.8,88,29.71,1.5,South,9.2,-,N/A,,Overcast,190,2013-07-23 11:18:00
7:45 AM,73.4,69.8,88,29.72,2.0,SSW,6.9,-,N/A,,Overcast,200,2013-07-23 11:45:00
8:45 AM,73.4,71.6,94,29.70,3.0,SSW,9.2,-,N/A,,Mostly Cloudy,200,2013-07-23 12:45:00
9:45 AM,75.2,69.8,83,29.68,10.0,SW,6.9,-,N/A,,Mostly Cloudy,230,2013-07-23 13:45:00
10:45 AM,77.0,69.8,78,29.68,10.0,West,5.8,-,N/A,,Mostly Cloudy,270,2013-07-23 14:45:00
11:45 AM,78.8,71.6,78,29.67,10.0,West,5.8,-,N/A,,Mostly Cloudy,270,2013-07-23 15:45:00
12:45 PM,78.8,69.8,74,29.67,10.0,West,5.8,-,N/A,,Mostly Cloudy,270,2013-07-23 16:45:00
1:45 PM,82.4,71.6,70,29.65,10.0,West,5.8,-,N/A,,Mostly Cloudy,270,2013-07-23 17:45:00
2:45 PM,84.2,71.6,66,29.63,10.0,SW,8.1,-,N/A,,Mostly Cloudy,230,2013-07-23 18:45:00
3:30 PM,82.4,69.8,66,29.66,2.0,WNW,11.5,23.0,N/A,Rain-Thunderstorm,Thunderstorms and Rain,290,2013-07-23 19:30:00
3:45 PM,73.4,66.2,78,29.63,5.0,NNW,11.5,20.7,N/A,Rain-Thunderstorm,Light Thunderstorms and Rain,330,2013-07-23 19:45:00
4:50 PM,75.2,69.8,83,29.65,7.0,NW,6.9,-,N/A,Thunderstorm,Thunderstorm,320,2013-07-23 20:50:00
5:45 PM,75.2,69.8,83,29.62,10.0,Calm,Calm,-,N/A,,Mostly Cloudy,0,2013-07-23 21:45:00
6:45 PM,78.8,69.8,74,29.63,10.0,Calm,Calm,-,N/A,,Mostly Cloudy,0,2013-07-23 22:45:00
7:45 PM,75.2,71.6,89,29.84,10.0,Calm,Calm,-,N/A,,Mostly Cloudy,0,2013-07-23 23:45:00
8:45 PM,73.4,69.8,88,29.64,10.0,Calm,Calm,-,N/A,,Mostly Cloudy,0,2013-07-24 00:45:00
8:55 PM,73.4,69.8,88,29.65,9.0,East,3.5,-,N/A,,Overcast,100,2013-07-24 00:55:00
9:15 PM,73.4,69.8,88,29.66,10.0,South,3.5,-,N/A,,Mostly Cloudy,170,2013-07-24 01:15:00
9:35 PM,73.4,69.8,88,29.65,4.0,Calm,Calm,-,0.07,,Overcast,0,2013-07-24 01:35:00
9:55 PM,73.4,69.8,88,29.66,6.0,South,5.8,-,0.07,,Overcast,180,2013-07-24 01:55:00
10:15 PM,71.6,69.8,94,29.66,5.0,Calm,Calm,-,N/A,,Mostly Cloudy,0,2013-07-24 02:15:00
10:35 PM,71.6,69.8,94,29.67,5.0,Calm,Calm,-,N/A,,Overcast,0,2013-07-24 02:35:00
10:55 PM,71.6,69.8,94,29.67,3.0,Calm,Calm,-,N/A,,Overcast,0,2013-07-24 02:55:00
11:15 PM,71.6,69.8,94,29.67,4.0,Calm,Calm,-,N/A,,Overcast,0,2013-07-24 03:15:00
11:35 PM,71.6,69.8,94,29.67,9.0,SSW,3.5,-,N/A,,Overcast,200,2013-07-24 03:35:00
11:55 PM,71.6,69.8,94,29.66,7.0,Calm,Calm,-,N/A,,Partly Cloudy,0,2013-07-24 03:55:00